Flag for Germany Weather past 2 weeks in Bad Hersfeld, Hesse, Germany

Now
59 °F

Fog.


Feels Like: 60 °F
Forecast: 57 / 82 °F
Wind: 3 mph from Northwest

Location: Fritzlar Airport

Current Time: Jul 26, 2014 at 5:50:46 AM

Latest Report: Jul 26, 2014 at 4:20 AM


Visibility: 2 mi

Pressure: 29.92 "Hg

Humidity: 100%

Dew point: 59 °F

Location of Bad HersfeldLocation

Historic Weather in Bad Hersfeld — Graph

°F

Bad Hersfeld temperature yesterday

Maximum temperature yesterday: 72 °F (at 4:20 PM)
Minimum temperature yesterday: 59 °F (at 1:20 AM)
Average temperature yesterday: 65 °F

Past Weeks' High & Low Weather Summary

 TemperatureHumidityPressure
High88 °F (Jul 19, 2:20 PM)100% (Jul 11, 4:20 AM)30.21 "Hg (Jul 11, 4:20 AM)
Low55 °F (Jul 11, 5:20 AM)33% (Jul 19, 3:20 PM)29.74 "Hg (Jul 13, 4:20 PM)
Average69 °F73%29.98 "Hg
* Reported Jul 11 4:20 AM — Jul 26 4:20 AM, Bad Hersfeld, Weather by CustomWeather, © 2014

Note: Actual official high and low records may vary slightly from our data, if they occured in-between our weather recording intervals... More about our weather records

Advertising

Bad Hersfeld weather history for previous 24 hours

 ConditionsComfort  
Time TempWeatherWind HumidityBarometerVisibility
4:20 AM
Jul 26
59 °FFog.3 mph100%29.92 "Hg2 mi
3:20 AM59 °FFog.3 mph100%29.92 "Hg1 mi
2:20 AM59 °FPassing clouds.5 mph94%29.95 "Hg5 mi
1:20 AM59 °FPassing clouds.5 mph94%29.92 "HgN/A
12:20 AM61 °FPassing clouds.3 mph94%29.92 "HgN/A
11:20 PM
Jul 25
63 °FPassing clouds.5 mph88%29.92 "HgN/A
10:20 PM63 °FPassing clouds.5 mph88%29.92 "HgN/A
9:20 PM66 °FScattered clouds.3 mph78%29.92 "HgN/A
8:20 PM70 °FScattered clouds.5 mph69%29.92 "HgN/A
7:20 PM70 °FScattered clouds.7 mph69%29.92 "HgN/A
6:20 PM72 °FScattered clouds.6 mph61%29.92 "HgN/A
5:20 PM72 °FScattered clouds.6 mph65%29.92 "HgN/A
4:20 PM72 °FScattered clouds.7 mph65%29.92 "HgN/A
3:20 PM70 °FScattered clouds.6 mph64%29.95 "HgN/A
2:20 PM68 °FBroken clouds.5 mph73%29.95 "HgN/A
1:20 PM68 °FBroken clouds.6 mph73%29.95 "HgN/A
12:20 PM66 °FBroken clouds.6 mph78%29.95 "HgN/A
12:00 PM66 °FBroken clouds.5 mph78%29.98 "HgN/A
11:20 AM64 °FBroken clouds.5 mph83%29.98 "HgN/A
10:20 AM64 °FBroken clouds.6 mph83%29.98 "HgN/A
9:20 AM63 °FPartly sunny.5 mph88%29.98 "HgN/A
8:20 AM63 °FPartly sunny.3 mph88%29.98 "HgN/A
7:20 AM61 °FPartly sunny.3 mph94%29.98 "HgN/A
6:20 AM61 °FPassing clouds.2 mph94%29.98 "Hg5 mi
5:20 AM59 °FDrizzle. Overcast.3 mph100%29.98 "Hg4 mi
Weather by CustomWeather, © 2014

See weather overviewHow to use our weather pages